GW1761 Weather Reports


time (UTC)temp
C
wind
direction
speed
KPH
gust
KPH
rain 1hr
cm
rain 24hr
cm
rain mn
cm
humidity
%
barometer
mb
20260504234548 24 360 11.3 17.7 0.00 0.00 0.00 19 998.5
20260504233057 24 360 12.9 20.9 0.00 0.00 0.00 19 998.2
20260504231511 25 360 9.7 14.5 0.00 0.00 0.00 18 998.1
20260504230032 25 360 4.8 8.0 0.00 0.00 0.00 16 997.7
20260504224511 26 360 6.4 14.5 0.00 0.00 0.00 15 997.4
20260504223036 26 360 4.8 16.1 0.00 0.00 0.00 15 997.4
20260504221515 26 360 3.2 12.9 0.00 0.00 0.00 15 997.6
20260504220038 27 360 1.6 14.5 0.00 0.00 0.00 14 997.6
20260504214515 26 360 1.6 14.5 0.00 0.00 0.00 14 997.8
20260504213113 26 360 1.6 9.7 0.00 0.00 0.00 14 998.0
20260504211521 27 360 3.2 14.5 0.00 0.00 0.00 14 998.1
20260504210101 28 360 8.0 14.5 0.00 0.00 0.00 14 998.2
20260504204553 28 360 11.3 16.1 0.00 0.00 0.00 13 998.5
20260504203051 28 360 1.6 8.0 0.00 0.00 0.00 14 998.6
20260504201533 28 360 3.2 9.7 0.00 0.00 0.00 16 998.7
20260504200012 28 360 3.2 14.5 0.00 0.00 0.00 15 999.1
20260504194548 28 360 1.6 6.4 0.00 0.00 0.00 17 999.2
20260504193012 27 360 4.8 16.1 0.00 0.00 0.00 16 999.3
20260504191543 27 360 1.6 9.7 0.00 0.00 0.00 18 999.6
20260504190029 27 360 8.0 19.3 0.00 0.00 0.00 19 999.8
20260504184509 26 360 3.2 12.9 0.00 0.00 0.00 20 1000.1
20260504183029 26 360 4.8 12.9 0.00 0.00 0.00 20 1000.2
20260504181511 26 360 3.2 14.5 0.00 0.00 0.00 21 1000.4
20260504180048 26 360 4.8 14.5 0.00 0.00 0.00 23 1000.5
20260504174521 26 360 4.8 14.5 0.00 0.00 0.00 24 1001.1
20260504173042 26 360 6.4 16.1 0.00 0.00 0.00 24 1001.2
20260504171544 25 360 8.0 14.5 0.00 0.00 0.00 24 1001.3
20260504081533 6 360 0.0 1.6 0.00 0.00 0.00 66 1002.6
20260504044546 13 360 3.2 6.4 0.00 0.00 0.00 43 1003.6
20260504043034 13 360 4.8 8.0 0.00 0.00 0.00 43 1003.6
20260504041545 12 360 0.0 4.8 0.00 0.00 0.00 44 1003.8
20260504040031 12 360 3.2 4.8 0.00 0.00 0.00 44 1003.9
20260504034552 13 360 1.6 6.4 0.00 0.00 0.00 44 1004.0
20260504033032 14 360 0.0 6.4 0.00 0.00 0.00 40 1004.1
20260504031514 14 360 1.6 6.4 0.00 0.00 0.00 38 1004.1
20260504030036 15 360 1.6 6.4 0.00 0.00 0.00 36 1004.0
20260504024555 16 360 3.2 6.4 0.00 0.00 0.00 34 1003.8
20260504023038 16 360 4.8 9.7 0.00 0.00 0.00 32 1003.7
20260504021557 17 360 0.0 6.4 0.00 0.00 0.00 30 1003.6
20260504020117 18 360 0.0 1.6 0.00 0.00 0.00 29 1003.3
20260504014610 20 360 0.0 1.6 0.00 0.00 0.00 29 1003.3
20260504014502 20 360 0.0 1.6 0.00 0.00 0.00 30 1003.3
20260504013058 21 360 0.0 3.2 0.00 0.00 0.00 27 1003.1
20260504011512 22 360 0.0 6.4 0.00 0.00 0.00 23 1003.3
20260504010050 23 360 3.2 8.0 0.00 0.00 0.00 21 1003.2
20260504004514 23 360 1.6 4.8 0.00 0.00 0.00 20 1003.4
20260504003050 24 360 1.6 9.7 0.00 0.00 0.00 18 1003.5
20260504001518 25 360 3.2 8.0 0.00 0.00 0.00 18 1003.6
20260504000105 25 360 6.4 12.9 0.00 0.00 0.00 17 1003.8